Time,TemperatureF,DewpointF,PressureIn,WindDirection,WindDirectionDegrees,WindSpeedMPH,WindSpeedGustMPH,Humidity,HourlyPrecipIn,Conditions,Clouds,dailyrainin,SolarRadiationWatts/m^2,SoftwareType,DateUTC
2013-04-07 00:08:00,54.5,43.0,30.21,SSW,213,0.0,1.0,66,0.00,,,0.00,0,weatherlink.com 1.10,2013-04-07 04:08:00,
2013-04-07 00:24:00,53.9,43.0,30.21,SSW,213,0.0,1.0,67,0.00,,,0.00,0,weatherlink.com 1.10,2013-04-07 04:24:00,
2013-04-07 00:39:00,53.2,43.0,30.21,SSW,213,0.0,0.0,68,0.00,,,0.00,0,weatherlink.com 1.10,2013-04-07 04:39:00,
2013-04-07 01:09:00,51.6,42.0,30.21,SSW,213,0.0,0.0,71,0.00,,,0.00,0,weatherlink.com 1.10,2013-04-07 05:09:00,
2013-04-07 01:24:00,51.7,43.0,30.21,SSW,213,0.0,0.0,71,0.00,,,0.00,0,weatherlink.com 1.10,2013-04-07 05:24:00,
2013-04-07 01:39:00,51.5,43.0,30.21,SSW,213,0.0,0.0,72,0.00,,,0.00,0,weatherlink.com 1.10,2013-04-07 05:39:00,
2013-04-07 01:54:00,50.6,43.0,30.20,SSW,213,0.0,0.0,74,0.00,,,0.00,0,weatherlink.com 1.10,2013-04-07 05:54:00,
2013-04-07 04:03:00,47.5,44.0,30.18,SSW,211,0.0,1.0,87,0.00,,,0.00,0,weatherlink.com 1.10,2013-04-07 08:03:00,
2013-04-07 04:40:00,46.9,44.0,30.18,SSW,211,0.0,0.0,89,0.00,,,0.00,0,weatherlink.com 1.10,2013-04-07 08:40:00,
2013-04-07 04:55:00,46.9,44.0,30.18,SSW,211,0.0,0.0,90,0.00,,,0.00,0,weatherlink.com 1.10,2013-04-07 08:55:00,
2013-04-07 05:10:00,47.1,45.0,30.18,SSW,211,0.0,0.0,91,0.00,,,0.00,0,weatherlink.com 1.10,2013-04-07 09:10:00,
2013-04-07 05:25:00,46.5,44.0,30.18,SSW,211,0.0,2.0,91,0.00,,,0.00,0,weatherlink.com 1.10,2013-04-07 09:25:00,
2013-04-07 05:40:00,46.8,45.0,30.18,SSW,211,0.0,0.0,93,0.00,,,0.00,0,weatherlink.com 1.10,2013-04-07 09:40:00,
2013-04-07 05:55:00,46.6,45.0,30.19,SSW,210,0.0,1.0,93,0.00,,,0.00,0,weatherlink.com 1.10,2013-04-07 09:55:00,
2013-04-07 06:10:00,46.7,45.0,30.19,SSW,210,0.0,0.0,93,0.00,,,0.00,0,weatherlink.com 1.10,2013-04-07 10:10:00,
2013-04-07 06:25:00,46.7,45.0,30.19,SSW,210,0.0,0.0,94,0.00,,,0.00,0,weatherlink.com 1.10,2013-04-07 10:25:00,
2013-04-07 06:40:00,46.8,45.0,30.20,SSW,205,0.0,1.0,94,0.00,,,0.00,0,weatherlink.com 1.10,2013-04-07 10:40:00,
2013-04-07 06:55:00,46.9,45.0,30.20,SSW,201,0.0,3.0,94,0.00,,,0.00,0,weatherlink.com 1.10,2013-04-07 10:55:00,
2013-04-07 07:10:00,47.0,46.0,30.20,SSE,156,0.0,2.0,95,0.00,,,0.00,0,weatherlink.com 1.10,2013-04-07 11:10:00,
2013-04-07 07:25:00,47.2,46.0,30.21,SSE,152,0.0,2.0,95,0.00,,,0.00,12,weatherlink.com 1.10,2013-04-07 11:25:00,
2013-04-07 07:40:00,47.5,46.0,30.21,SE,138,0.0,1.0,95,0.00,,,0.00,33,weatherlink.com 1.10,2013-04-07 11:40:00,
2013-04-07 07:55:00,47.8,47.0,30.22,SSE,163,0.0,5.0,95,0.00,,,0.00,39,weatherlink.com 1.10,2013-04-07 11:55:00,
2013-04-07 08:10:00,48.8,48.0,30.23,SSW,203,0.0,4.0,95,0.00,,,0.00,77,weatherlink.com 1.10,2013-04-07 12:10:00,
2013-04-07 08:25:00,49.7,48.0,30.23,SSE,152,0.0,2.0,94,0.00,,,0.00,81,weatherlink.com 1.10,2013-04-07 12:25:00,
2013-04-07 08:40:00,50.8,49.0,30.24,WSW,252,0.0,3.0,93,0.00,,,0.00,72,weatherlink.com 1.10,2013-04-07 12:40:00,
2013-04-07 08:55:00,51.9,49.0,30.24,WSW,246,0.0,1.0,91,0.00,,,0.00,91,weatherlink.com 1.10,2013-04-07 12:55:00,
2013-04-07 09:10:00,53.9,51.0,30.24,SSE,168,0.0,3.0,89,0.00,,,0.00,374,weatherlink.com 1.10,2013-04-07 13:10:00,
2013-04-07 09:25:00,56.1,52.0,30.24,SW,215,2.0,2.0,85,0.00,,,0.00,413,weatherlink.com 1.10,2013-04-07 13:25:00,
2013-04-07 09:40:00,58.0,52.0,30.24,SSW,200,1.0,1.0,81,0.00,,,0.00,469,weatherlink.com 1.10,2013-04-07 13:40:00,
2013-04-07 09:55:00,59.5,53.0,30.24,SSW,207,0.0,2.0,78,0.00,,,0.00,508,weatherlink.com 1.10,2013-04-07 13:55:00,
2013-04-07 10:10:00,62.1,54.0,30.24,SSW,196,2.0,2.0,74,0.00,,,0.00,555,weatherlink.com 1.10,2013-04-07 14:10:00,
2013-04-07 10:25:00,62.8,53.0,30.24,SW,219,0.0,1.0,71,0.00,,,0.00,612,weatherlink.com 1.10,2013-04-07 14:25:00,
2013-04-07 10:40:00,64.7,54.0,30.24,SW,229,3.0,4.0,69,0.00,,,0.00,645,weatherlink.com 1.10,2013-04-07 14:40:00,
2013-04-07 10:56:00,65.8,54.0,30.24,WNW,293,0.0,4.0,65,0.00,,,0.00,696,weatherlink.com 1.10,2013-04-07 14:56:00,
2013-04-07 11:11:00,67.1,53.0,30.25,WSW,257,0.0,4.0,62,0.00,,,0.00,721,weatherlink.com 1.10,2013-04-07 15:11:00,
2013-04-07 11:26:00,68.1,54.0,30.23,SW,233,1.0,5.0,60,0.00,,,0.00,759,weatherlink.com 1.10,2013-04-07 15:26:00,
2013-04-07 11:41:00,69.5,55.0,30.23,SW,227,0.0,8.0,61,0.00,,,0.00,789,weatherlink.com 1.10,2013-04-07 15:41:00,
2013-04-07 12:26:00,71.2,57.0,30.22,SSW,195,0.0,7.0,61,0.00,,,0.00,1009,weatherlink.com 1.10,2013-04-07 16:26:00,
2013-04-07 12:41:00,72.3,57.0,30.21,SW,234,0.0,5.0,59,0.00,,,0.00,923,weatherlink.com 1.10,2013-04-07 16:41:00,
2013-04-07 13:11:00,73.5,56.0,30.20,WSW,251,0.0,5.0,54,0.00,,,0.00,946,weatherlink.com 1.10,2013-04-07 17:11:00,
2013-04-07 13:26:00,73.2,56.0,30.18,SW,236,0.0,8.0,56,0.00,,,0.00,684,weatherlink.com 1.10,2013-04-07 17:26:00,
2013-04-07 14:11:00,73.8,55.0,30.17,WSW,244,0.0,8.0,53,0.00,,,0.00,308,weatherlink.com 1.10,2013-04-07 18:11:00,
2013-04-07 14:26:00,72.7,54.0,30.16,WSW,244,0.0,9.0,53,0.00,,,0.00,185,weatherlink.com 1.10,2013-04-07 18:26:00,
2013-04-07 14:41:00,73.2,54.0,30.15,WNW,302,0.0,6.0,52,0.00,,,0.00,163,weatherlink.com 1.10,2013-04-07 18:41:00,
2013-04-07 14:56:00,75.2,54.0,30.15,South,188,0.0,5.0,47,0.00,,,0.00,241,weatherlink.com 1.10,2013-04-07 18:56:00,
2013-04-07 15:11:00,74.7,54.0,30.14,SSW,204,0.0,8.0,48,0.00,,,0.00,253,weatherlink.com 1.10,2013-04-07 19:11:00,
2013-04-07 15:26:00,74.9,54.0,30.14,SSW,211,0.0,8.0,49,0.00,,,0.00,169,weatherlink.com 1.10,2013-04-07 19:26:00,
2013-04-07 15:41:00,74.5,54.0,30.13,SW,232,3.0,9.0,49,0.00,,,0.00,241,weatherlink.com 1.10,2013-04-07 19:41:00,
2013-04-07 15:56:00,75.0,53.0,30.12,South,188,0.0,8.0,47,0.00,,,0.00,796,weatherlink.com 1.10,2013-04-07 19:56:00,
2013-04-07 16:11:00,75.2,54.0,30.12,SSW,213,0.0,7.0,47,0.00,,,0.00,448,weatherlink.com 1.10,2013-04-07 20:11:00,
2013-04-07 16:26:00,74.2,53.0,30.11,WSW,243,1.0,11.0,48,0.00,,,0.00,225,weatherlink.com 1.10,2013-04-07 20:26:00,
2013-04-07 16:41:00,75.1,54.0,30.11,WSW,240,0.0,5.0,48,0.00,,,0.00,339,weatherlink.com 1.10,2013-04-07 20:41:00,
2013-04-07 16:56:00,75.3,54.0,30.10,WNW,298,0.0,5.0,48,0.00,,,0.00,371,weatherlink.com 1.10,2013-04-07 20:56:00,
2013-04-07 17:11:00,75.8,55.0,30.09,WSW,252,0.0,4.0,48,0.00,,,0.00,603,weatherlink.com 1.10,2013-04-07 21:11:00,
2013-04-07 17:26:00,75.8,55.0,30.10,SW,229,1.0,5.0,48,0.00,,,0.00,501,weatherlink.com 1.10,2013-04-07 21:26:00,
2013-04-07 17:41:00,75.8,54.0,30.10,SW,232,0.0,4.0,47,0.00,,,0.00,190,weatherlink.com 1.10,2013-04-07 21:41:00,
2013-04-07 18:12:00,75.0,54.0,30.10,SW,217,0.0,6.0,48,0.00,,,0.00,302,weatherlink.com 1.10,2013-04-07 22:12:00,
2013-04-07 18:26:00,74.4,54.0,30.10,SW,233,0.0,2.0,49,0.00,,,0.00,225,weatherlink.com 1.10,2013-04-07 22:26:00,
2013-04-07 18:41:00,73.9,54.0,30.10,SW,234,0.0,4.0,50,0.00,,,0.00,56,weatherlink.com 1.10,2013-04-07 22:41:00,
2013-04-07 18:56:00,73.3,54.0,30.10,SW,229,0.0,4.0,51,0.00,,,0.00,62,weatherlink.com 1.10,2013-04-07 22:56:00,
2013-04-07 19:11:00,73.4,54.0,30.10,SW,230,0.0,3.0,51,0.00,,,0.00,37,weatherlink.com 1.10,2013-04-07 23:11:00,
2013-04-07 19:26:00,72.5,54.0,30.10,SW,215,2.0,5.0,53,0.00,,,0.00,21,weatherlink.com 1.10,2013-04-07 23:26:00,
2013-04-07 19:42:00,71.6,54.0,30.10,SW,221,0.0,3.0,55,0.00,,,0.00,7,weatherlink.com 1.10,2013-04-07 23:42:00,
2013-04-07 19:57:00,70.6,55.0,30.11,SW,221,0.0,1.0,58,0.00,,,0.00,0,weatherlink.com 1.10,2013-04-07 23:57:00,
2013-04-07 20:11:00,69.5,55.0,30.11,SW,221,0.0,1.0,61,0.00,,,0.00,0,weatherlink.com 1.10,2013-04-08 00:11:00,
2013-04-07 20:26:00,69.1,56.0,30.12,SW,221,0.0,1.0,63,0.00,,,0.00,0,weatherlink.com 1.10,2013-04-08 00:26:00,
2013-04-07 20:42:00,68.4,56.0,30.11,SW,221,0.0,1.0,64,0.00,,,0.00,0,weatherlink.com 1.10,2013-04-08 00:42:00,
2013-04-07 20:57:00,67.8,56.0,30.12,SW,234,0.0,4.0,65,0.00,,,0.00,0,weatherlink.com 1.10,2013-04-08 00:57:00,
2013-04-07 21:12:00,67.2,55.0,30.12,SW,231,0.0,1.0,66,0.00,,,0.00,0,weatherlink.com 1.10,2013-04-08 01:12:00,
2013-04-07 21:27:00,66.6,55.0,30.13,SSW,212,0.0,1.0,67,0.00,,,0.00,0,weatherlink.com 1.10,2013-04-08 01:27:00,
2013-04-07 21:42:00,66.1,55.0,30.13,SW,214,0.0,3.0,67,0.00,,,0.00,0,weatherlink.com 1.10,2013-04-08 01:42:00,
2013-04-07 21:57:00,65.5,55.0,30.14,SW,215,0.0,1.0,68,0.00,,,0.00,0,weatherlink.com 1.10,2013-04-08 01:57:00,
2013-04-07 22:12:00,65.0,54.0,30.14,SSW,212,0.0,4.0,68,0.00,,,0.00,0,weatherlink.com 1.10,2013-04-08 02:12:00,
2013-04-07 22:27:00,64.5,54.0,30.14,SSW,210,0.0,1.0,69,0.00,,,0.00,0,weatherlink.com 1.10,2013-04-08 02:27:00,
2013-04-07 22:42:00,64.2,54.0,30.15,SW,215,0.0,2.0,70,0.00,,,0.00,0,weatherlink.com 1.10,2013-04-08 02:42:00,
2013-04-07 22:57:00,63.6,54.0,30.14,SW,214,0.0,1.0,71,0.00,,,0.00,0,weatherlink.com 1.10,2013-04-08 02:57:00,
2013-04-07 23:12:00,63.0,54.0,30.15,SW,218,0.0,1.0,72,0.00,,,0.00,0,weatherlink.com 1.10,2013-04-08 03:12:00,
2013-04-07 23:42:00,62.3,54.0,30.15,SW,223,0.0,1.0,74,0.00,,,0.00,0,weatherlink.com 1.10,2013-04-08 03:42:00,
2013-04-07 23:57:00,62.1,54.0,30.15,SW,223,0.0,0.0,75,0.00,,,0.00,0,weatherlink.com 1.10,2013-04-08 03:57:00,